Home > Time Zones > World Clock > Weather > U.S.A. > Nome > Past weeks

Flag for U.S.A. Weather past 2 weeks in Nome, Alaska, U.S.A.

Now
20 °F

Passing clouds.


Feels Like: 10 °F
Forecast: 3 / 21 °F
Wind: 8 mph from North

Location: Nome Airport

Current Time: Mar 27, 2015 at 4:50:26 PM

Latest Report: Mar 27, 2015 at 3:53 PM


Visibility: 10 mi

Pressure: 29.55 "Hg

Humidity: 55%

Dew point: 6 °F

Location of NomeLocation

Historic Weather in Nome — Graph

°F

Nome temperature yesterday

Maximum temperature yesterday: 19 °F (at 2:53 PM)
Minimum temperature yesterday: -1 °F (at 7:53 AM)
Average temperature yesterday: 10 °F

Past Weeks' High & Low Weather Summary

 TemperatureHumidityPressure
High28 °F (Mar 19, 2:53 PM)96% (Mar 13, 12:53 PM)30.12 "Hg (Mar 13, 12:53 PM)
Low-23 °F (Mar 13, 7:53 AM)49% (Mar 15, 6:53 PM)29.49 "Hg (Mar 26, 5:53 PM)
Average8 °F79%29.83 "Hg
* Reported Mar 12 3:53 PM — Mar 27 3:53 PM, Nome, Weather by CustomWeather, © 2015

Note: Actual official high and low records may vary slightly from our data, if they occured in-between our weather recording intervals... More about our weather records

Advertising

Nome weather history for previous 24 hours

 ConditionsComfort  
Time TempWeatherWind HumidityBarometerVisibility
3:53 PM
Fri, Mar 27
20 °FPassing clouds.8 mph55%29.55 "Hg10 mi
2:53 PM20 °FPassing clouds.No wind57%29.55 "Hg10 mi
1:53 PM13 °FPassing clouds.3 mph70%29.56 "Hg10 mi
12:53 PM15 °FPassing clouds.5 mph56%29.56 "Hg10 mi
11:53 AM10 °FPassing clouds.3 mph73%29.54 "Hg10 mi
10:53 AM3 °FPassing clouds.3 mph79%29.53 "Hg10 mi
9:53 AM0 °FPassing clouds.No wind83%29.52 "Hg10 mi
8:53 AM-1 °FPassing clouds.No wind79%29.54 "Hg10 mi
7:53 AM-1 °FPassing clouds.No wind79%29.54 "Hg10 mi
6:53 AM-3 °FClear.No wind82%29.52 "Hg10 mi
5:53 AM-1 °FClear.No wind82%29.53 "Hg10 mi
4:53 AM0 °FClear.No wind83%29.52 "Hg10 mi
3:53 AM0 °FClear.No wind83%29.52 "Hg10 mi
2:53 AM2 °FClear.3 mph83%29.52 "Hg10 mi
1:53 AM1 °FClear.3 mph87%29.52 "Hg10 mi
12:53 AM4 °FClear.No wind88%29.51 "Hg10 mi
11:53 PM
Thu, Mar 26
5 °FPassing clouds.No wind87%29.51 "Hg10 mi
10:53 PM8 °FPassing clouds.No wind79%29.51 "Hg10 mi
9:53 PM9 °FScattered clouds.5 mph76%29.49 "Hg10 mi
8:53 PM15 °FScattered clouds.No wind77%29.49 "Hg10 mi
7:53 PM17 °FScattered clouds.No wind76%29.49 "Hg10 mi
6:53 PM19 °FScattered clouds.No wind74%29.49 "Hg10 mi
5:53 PM18 °FSunny.3 mph80%29.49 "Hg10 mi
4:53 PM18 °FSunny.3 mph77%29.49 "Hg10 mi
Weather by CustomWeather, © 2015

See weather overviewHow to use our weather pages